{"data":{"norad_id":67911,"epoch":"2026-09-19T15:19:08.512608Z","epoch_age_seconds":137662,"freshness":"FRESH","line1":"1 67911U 26036H   26262.63829297  .00007871  00000+0  29517-3 0  9994","line2":"2 67911  43.0016 229.9775 0000893 317.0159  43.0623 15.27589774 33387","mean_motion":15.27589774,"eccentricity":8.93e-5,"inclination_deg":43.0016,"raan_deg":229.9775,"arg_perigee_deg":317.0159,"mean_anomaly_deg":43.0623,"bstar":0.00029517,"rev_number":3338,"period_min":94.266145565334,"perigee_km":482.40712801867,"apogee_km":483.63253062838,"semimajor_km":6861.1568293235,"source":"CELESTRAK","updated_at":"2026-09-20T09:00:43.702330Z"}}